This is the latest recevied weather packets stored in our database for station/object EA3ANS-1. If no packets are shown the sender has not sent any weather packets the latest 10 day(s).
| Time | Temp. | Humidity | Pressure | Rain* | Wind** | Luminosity | Snow |
|---|---|---|---|---|---|---|---|
| 1788035859 | 25° C | - | 1015.8 hPa | 0 mm | 1.34 m/s, 294° | - | - |
| 1788035262 | 25° C | - | 1015.8 hPa | 0 mm | 0.89 m/s, 207° | - | - |
| 1788034664 | 25° C | - | 1015.8 hPa | 0 mm | 1.34 m/s, 221° | - | - |
| 1788034059 | 25° C | - | 1016 hPa | 0 mm | 1.34 m/s, 195° | - | - |
| 1788033461 | 25.56° C | - | 1015.7 hPa | 0 mm | 1.34 m/s, 191° | - | - |
| 1788032863 | 25.56° C | - | 1015.6 hPa | 0 mm | 0.89 m/s, 183° | - | - |
| 1788032266 | 25.56° C | - | 1015.4 hPa | 0 mm | 0.89 m/s, 225° | - | - |
| 1788031664 | 25.56° C | - | 1015.3 hPa | 0 mm | 0.45 m/s, 217° | - | - |
| 1788031066 | 25.56° C | - | 1015.1 hPa | 0 mm | 2.68 m/s, 201° | - | - |
| 1788030466 | 26.11° C | - | 1014.9 hPa | 0 mm | 1.79 m/s, 195° | - | - |
| 1788029861 | 26.11° C | - | 1014.7 hPa | 0 mm | 1.79 m/s, 197° | - | - |
| 1788029263 | 26.11° C | - | 1014.7 hPa | 0 mm | 1.79 m/s, 174° | - | - |
| 1788028661 | 26.67° C | - | 1014.6 hPa | 0 mm | 2.24 m/s, 201° | - | - |
| 1788028063 | 26.67° C | - | 1014.6 hPa | 0 mm | 0.45 m/s, 333° | - | - |
| 1788027465 | 26.67° C | - | 1014.5 hPa | 0 mm | 2.68 m/s, 228° | - | - |
| 1788026868 | 27.22° C | - | 1014.5 hPa | 0 mm | 2.24 m/s, 188° | - | - |
| 1788026270 | 27.22° C | - | 1014.4 hPa | 0 mm | 2.68 m/s, 183° | - | - |
| 1788025665 | 27.78° C | - | 1014.3 hPa | 0 mm | 1.34 m/s, 176° | - | - |
| 1788025067 | 28.33° C | - | 1014.3 hPa | 0 mm | 1.79 m/s, 195° | - | - |
| 1788024467 | 27.78° C | - | 1014.3 hPa | 0 mm | 3.13 m/s, 208° | - | - |
| 1788023869 | 27.78° C | - | 1014.1 hPa | 0 mm | 3.13 m/s, 242° | - | - |
| 1788023271 | 28.33° C | - | 1014.4 hPa | 0 mm | 4.02 m/s, 242° | - | - |
| 1788022674 | 28.89° C | - | 1014.4 hPa | 0 mm | 3.58 m/s, 208° | - | - |
| 1788022076 | 28.33° C | - | 1014.5 hPa | 0 mm | 2.24 m/s, 250° | - | - |
| 1788021470 | 28.89° C | - | 1014.5 hPa | 0 mm | 2.68 m/s, 235° | - | - |
* Rain latest hour (hover to see other rain measurements)
** Current wind speed in m/s (hover to see current wind gust speed)